TimeCDT,TemperatureF,Dew PointF,Humidity,Sea Level PressureIn,VisibilityMPH,Wind Direction,Wind SpeedMPH,Gust SpeedMPH,PrecipitationIn,Events,Conditions,WindDirDegrees,DateUTC
12:15 AM,46.9,31.6,55,30.30,10.0,North,5.8,-,N/A,,Mostly Cloudy,350,2012-10-12 05:15:00
12:35 AM,47.8,29.5,49,30.30,10.0,North,10.4,-,N/A,,Overcast,360,2012-10-12 05:35:00
12:55 AM,47.7,28.4,47,30.32,10.0,North,10.4,16.1,N/A,,Overcast,10,2012-10-12 05:55:00
1:15 AM,47.5,25.3,42,30.32,10.0,NNE,18.4,23.0,N/A,,Overcast,20,2012-10-12 06:15:00
1:35 AM,46.9,21.6,37,30.34,10.0,North,13.8,18.4,N/A,,Overcast,10,2012-10-12 06:35:00
1:55 AM,46.4,22.3,39,30.34,10.0,NNE,6.9,-,N/A,,Overcast,20,2012-10-12 06:55:00
2:15 AM,45.7,22.3,40,30.35,10.0,NNE,8.1,-,N/A,,Mostly Cloudy,20,2012-10-12 07:15:00
2:35 AM,45.5,22.1,40,30.35,10.0,North,9.2,-,N/A,,Mostly Cloudy,10,2012-10-12 07:35:00
3:15 AM,44.1,22.1,42,30.37,10.0,North,9.2,-,N/A,,Overcast,10,2012-10-12 08:15:00
3:35 AM,42.8,22.3,44,30.37,10.0,NNE,12.7,16.1,N/A,,Mostly Cloudy,20,2012-10-12 08:35:00
3:55 AM,41.4,22.1,46,30.37,10.0,NNE,9.2,-,N/A,,Scattered Clouds,30,2012-10-12 08:55:00
4:15 AM,38.8,22.3,51,30.38,10.0,North,6.9,-,N/A,,Clear,10,2012-10-12 09:15:00
4:35 AM,37.8,22.6,54,30.39,10.0,NNE,4.6,-,N/A,,Clear,20,2012-10-12 09:35:00
4:55 AM,36.5,22.8,58,30.39,10.0,North,3.5,-,N/A,,Clear,10,2012-10-12 09:55:00
5:15 AM,35.8,22.6,59,30.39,10.0,NNE,3.5,-,N/A,,Clear,20,2012-10-12 10:15:00
5:35 AM,35.8,23.0,60,30.39,10.0,NNE,4.6,-,N/A,,Clear,30,2012-10-12 10:35:00
5:55 AM,35.6,23.4,61,30.40,10.0,NNE,4.6,-,N/A,,Clear,20,2012-10-12 10:55:00
6:15 AM,34.9,23.2,62,30.41,10.0,North,4.6,-,N/A,,Clear,10,2012-10-12 11:15:00
6:35 AM,34.7,23.0,62,30.41,10.0,North,3.5,-,N/A,,Clear,10,2012-10-12 11:35:00
6:55 AM,31.8,22.6,69,30.42,10.0,Calm,Calm,-,N/A,,Clear,0,2012-10-12 11:55:00
7:15 AM,34.2,23.9,66,30.43,10.0,North,3.5,-,N/A,,Clear,10,2012-10-12 12:15:00
7:35 AM,33.3,23.5,68,30.43,10.0,North,4.6,-,N/A,,Clear,10,2012-10-12 12:35:00
7:55 AM,33.1,24.3,70,30.44,10.0,Calm,Calm,-,N/A,,Clear,0,2012-10-12 12:55:00
8:15 AM,36.7,25.9,65,30.44,10.0,NE,5.8,-,N/A,,Clear,40,2012-10-12 13:15:00
8:35 AM,39.2,26.1,59,30.45,10.0,NE,6.9,-,N/A,,Clear,50,2012-10-12 13:35:00
8:55 AM,41.0,26.2,56,30.45,10.0,ENE,9.2,-,N/A,,Clear,70,2012-10-12 13:55:00
9:15 AM,41.9,25.7,53,30.45,10.0,ENE,9.2,-,N/A,,Clear,60,2012-10-12 14:15:00
9:35 AM,43.7,25.0,48,30.45,10.0,NE,8.1,-,N/A,,Clear,50,2012-10-12 14:35:00
9:55 AM,45.3,22.5,40,30.46,10.0,East,11.5,-,N/A,,Clear,80,2012-10-12 14:55:00
10:15 AM,44.4,21.9,41,30.46,10.0,ENE,12.7,17.3,N/A,,Clear,70,2012-10-12 15:15:00
10:35 AM,46.6,22.1,38,30.46,10.0,ENE,9.2,-,N/A,,Clear,70,2012-10-12 15:35:00
10:55 AM,48.2,20.1,33,30.46,10.0,ENE,11.5,-,N/A,,Clear,70,2012-10-12 15:55:00
11:15 AM,49.3,20.1,32,30.46,10.0,East,9.2,-,N/A,,Clear,100,2012-10-12 16:15:00
11:35 AM,50.2,19.9,30,30.46,10.0,ESE,9.2,16.1,N/A,,Clear,110,2012-10-12 16:35:00
12:15 PM,51.8,19.8,28,30.44,10.0,East,4.6,-,N/A,,Clear,100,2012-10-12 17:15:00
12:35 PM,52.5,18.3,26,30.43,10.0,ESE,9.2,-,N/A,,Clear,110,2012-10-12 17:35:00
12:55 PM,53.8,17.8,24,30.42,10.0,ESE,8.1,-,N/A,,Clear,110,2012-10-12 17:55:00
1:35 PM,54.7,16.3,22,30.39,10.0,ESE,6.9,16.1,N/A,,Clear,120,2012-10-12 18:35:00
1:55 PM,55.6,17.8,23,30.38,10.0,East,6.9,16.1,N/A,,Clear,100,2012-10-12 18:55:00
2:15 PM,56.3,19.0,23,30.38,10.0,SSE,9.2,-,N/A,,Clear,160,2012-10-12 19:15:00
2:35 PM,56.7,22.1,26,30.38,10.0,SSE,10.4,-,N/A,,Clear,150,2012-10-12 19:35:00
2:55 PM,57.0,23.0,27,30.37,10.0,ESE,11.5,16.1,N/A,,Clear,110,2012-10-12 19:55:00
3:15 PM,57.0,21.2,25,30.36,10.0,SSE,5.8,-,N/A,,Clear,150,2012-10-12 20:15:00
3:35 PM,57.4,23.7,27,30.34,10.0,ESE,8.1,-,N/A,,Clear,120,2012-10-12 20:35:00
3:55 PM,57.0,24.8,29,30.33,10.0,ESE,5.8,-,N/A,,Clear,120,2012-10-12 20:55:00
4:15 PM,57.2,24.1,28,30.33,10.0,SE,9.2,-,N/A,,Clear,140,2012-10-12 21:15:00
4:35 PM,57.2,23.0,27,30.32,10.0,SSE,8.1,-,N/A,,Clear,150,2012-10-12 21:35:00
5:15 PM,56.5,24.6,29,30.31,10.0,SE,9.2,-,N/A,,Clear,130,2012-10-12 22:15:00
5:55 PM,53.6,27.0,36,30.29,10.0,SE,6.9,-,N/A,,Clear,130,2012-10-12 22:55:00
6:15 PM,50.2,28.8,44,30.29,10.0,SE,6.9,-,N/A,,Clear,140,2012-10-12 23:15:00
6:55 PM,46.4,29.5,52,30.29,10.0,SE,3.5,-,N/A,,Clear,130,2012-10-12 23:55:00
7:15 PM,46.4,27.3,47,30.27,10.0,ESE,6.9,-,N/A,,Clear,110,2012-10-13 00:15:00
7:35 PM,46.2,27.1,47,30.26,10.0,East,6.9,-,N/A,,Clear,80,2012-10-13 00:35:00
7:55 PM,44.1,27.5,52,30.26,10.0,East,5.8,-,N/A,,Clear,100,2012-10-13 00:55:00
8:15 PM,44.6,28.0,52,30.25,10.0,East,6.9,-,N/A,,Clear,100,2012-10-13 01:15:00
8:35 PM,45.1,28.8,53,30.24,10.0,East,6.9,-,N/A,,Clear,100,2012-10-13 01:35:00
9:15 PM,48.2,28.4,46,30.24,10.0,ESE,10.4,-,N/A,,Clear,120,2012-10-13 02:15:00
9:35 PM,49.6,27.9,43,30.24,10.0,ESE,10.4,-,N/A,,Clear,120,2012-10-13 02:35:00
9:55 PM,50.0,27.7,42,30.24,10.0,ESE,11.5,17.3,N/A,,Clear,120,2012-10-13 02:55:00
10:15 PM,50.0,28.0,43,30.24,10.0,SE,11.5,-,N/A,,Clear,130,2012-10-13 03:15:00
10:55 PM,48.9,28.4,45,30.24,10.0,SE,8.1,-,N/A,,Clear,140,2012-10-13 03:55:00
11:15 PM,48.6,28.4,46,30.23,10.0,SE,8.1,-,N/A,,Scattered Clouds,130,2012-10-13 04:15:00
11:35 PM,49.6,28.4,44,30.22,10.0,SE,8.1,-,N/A,,Mostly Cloudy,130,2012-10-13 04:35:00
11:55 PM,50.0,27.9,42,30.21,10.0,SE,8.1,-,N/A,,Overcast,130,2012-10-13 04:55:00